DW6222 Weather Reports


Display with metric or nautical units.
time (UTC)temp
F
wind
direction
speed
MPH
gust
MPH
rain 1hr
in
rain 24hr
in
rain mn
in
humidity
%
barometer
mb
20260903101555 64 0 0.0 0.0 0.00 0.00 0.00 98 1012.4
20260903100049 64 0 0.0 0.0 0.00 0.00 0.00 98 1012.4
20260903094601 64 0 0.0 0.0 0.00 0.00 0.00 98 1012.3
20260903093119 64 0 0.0 0.0 0.00 0.00 0.00 97 1012.2
20260903091552 64 0 0.0 0.0 0.00 0.00 0.00 98 1012.3
20260903090045 63 0 0.0 0.0 0.00 0.00 0.00 98 1012.4
20260903084556 63 0 0.0 0.0 0.00 0.00 0.00 96 1012.4
20260903083056 63 0 0.0 0.0 0.00 0.00 0.00 97 1012.5
20260903081557 63 0 0.0 0.0 0.00 0.00 0.00 96 1012.4
20260903080105 64 0 0.0 0.0 0.00 0.00 0.00 97 1012.5
20260903074612 63 0 0.0 0.0 0.00 0.00 0.00 97 1012.4
20260903073059 63 0 0.0 0.0 0.00 0.00 0.00 97 1012.5
20260903071545 63 0 0.0 0.0 0.00 0.00 0.00 97 1012.5
20260903070057 63 0 0.0 0.0 0.00 0.00 0.00 97 1012.8
20260903064550 63 0 0.0 0.0 0.00 0.00 0.00 96 1012.8
20260903063047 63 0 0.0 0.0 0.00 0.00 0.00 96 1012.8
20260903061546 63 0 0.0 0.0 0.00 0.00 0.00 95 1012.9
20260903060052 64 0 0.0 0.0 0.00 0.00 0.00 96 1012.8
20260903054559 64 0 0.0 0.0 0.00 0.00 0.00 95 1012.5
20260903053056 64 0 0.0 0.0 0.00 0.00 0.00 95 1012.8
20260903051551 64 0 0.0 0.0 0.00 0.00 0.00 94 1012.9
20260903050046 64 0 0.0 0.0 0.00 0.00 0.00 94 1013.0
20260903044558 64 0 0.0 0.0 0.00 0.00 0.00 93 1012.7
20260903043056 65 0 0.0 2.0 0.00 0.00 0.00 93 1012.7
20260903041550 65 0 0.0 1.0 0.00 0.00 0.00 93 1012.4
20260903040059 65 0 0.0 3.0 0.00 0.00 0.00 94 1012.6
20260903034601 64 0 0.0 0.0 0.00 0.00 0.00 92 1012.9
20260903033055 64 0 0.0 0.0 0.00 0.00 0.00 92 1012.8
20260903031600 65 0 0.0 0.0 0.00 0.00 0.00 91 1012.7
20260903030053 65 0 0.0 0.0 0.00 0.00 0.00 90 1012.7
20260903024545 66 0 0.0 0.0 0.00 0.00 0.00 90 1012.4
20260903023056 67 0 0.0 0.0 0.00 0.00 0.00 88 1012.4
20260903021547 68 0 0.0 0.0 0.00 0.00 0.00 88 1012.2
20260903020043 68 0 0.0 0.0 0.00 0.00 0.00 88 1012.2
20260903014552 69 0 0.0 0.0 0.00 0.00 0.00 90 1012.2
20260903013055 70 0 0.0 0.0 0.00 0.00 0.00 88 1012.1
20260903011600 70 0 0.0 0.0 0.00 0.00 0.00 84 1012.0
20260903010100 70 0 0.0 0.0 0.00 0.00 0.00 84 1011.9
20260903004557 71 0 0.0 0.0 0.00 0.00 0.00 82 1011.9
20260903003052 71 128 1.0 3.0 0.00 0.00 0.00 80 1011.9
20260903001604 72 126 2.0 4.0 0.00 0.00 0.00 78 1011.8
20260903000054 73 134 4.0 7.0 0.00 0.00 0.00 75 1012.0
20260902234601 73 130 3.0 6.0 0.00 0.00 0.00 72 1011.8
20260902233102 74 127 2.0 8.0 0.00 0.00 0.00 71 1011.8
20260902231608 74 113 3.0 7.0 0.00 0.00 0.00 71 1011.8
20260902230054 74 130 4.0 8.0 0.00 0.00 0.00 72 1011.6
20260902224604 74 136 4.0 7.0 0.00 0.00 0.00 70 1011.5
20260902223050 75 115 1.0 6.0 0.00 0.00 0.00 74 1011.5
20260902221545 76 134 4.0 8.0 0.00 0.00 0.00 70 1011.4
20260902220100 75 132 3.0 9.0 0.00 0.00 0.00 71 1011.3
20260902214552 75 144 5.0 8.0 0.00 0.00 0.00 73 1011.2
20260902213101 74 137 5.0 9.0 0.00 0.00 0.00 74 1011.2
20260902211603 74 134 6.0 11.0 0.00 0.00 0.00 73 1011.2
20260902210055 74 119 6.0 11.0 0.00 0.00 0.00 72 1011.5
20260902204556 76 155 8.0 11.0 0.00 0.00 0.00 70 1011.4
20260902203101 78 61 3.0 9.0 0.00 0.00 0.00 63 1011.4
20260902201547 77 34 3.0 10.0 0.00 0.00 0.00 65 1011.2
20260902200058 76 45 6.0 11.0 0.00 0.00 0.00 66 1011.4
20260902194552 77 47 4.0 9.0 0.00 0.00 0.00 64 1011.5
20260902193052 76 62 4.0 9.0 0.00 0.00 0.00 65 1011.6
20260902191552 76 49 6.0 9.0 0.00 0.00 0.00 66 1011.6
20260902190057 75 46 6.0 10.0 0.00 0.00 0.00 68 1011.6
20260902184600 74 82 4.0 13.0 0.00 0.00 0.00 69 1011.8
20260902183101 74 91 7.0 13.0 0.00 0.00 0.00 70 1011.9
20260902181550 74 21 5.0 11.0 0.00 0.00 0.00 72 1012.0
20260902180101 73 10 7.0 11.0 0.00 0.00 0.00 74 1012.2
20260902174605 73 20 4.0 10.0 0.00 0.00 0.00 76 1012.3
20260902173053 73 9 6.0 10.0 0.00 0.00 0.00 73 1012.2
20260902171558 73 62 5.0 10.0 0.00 0.00 0.00 74 1012.3
20260902170058 73 355 1.0 7.0 0.00 0.00 0.00 74 1012.2
20260902164557 73 162 4.0 9.0 0.00 0.00 0.00 72 1012.2
20260902163101 72 174 5.0 7.0 0.00 0.00 0.00 72 1012.1
20260902161548 71 167 3.0 7.0 0.00 0.00 0.00 75 1012.1
20260902160059 70 301 5.0 9.0 0.00 0.00 0.00 85 1012.0
20260902154554 69 270 1.0 3.0 0.00 0.00 0.00 84 1012.1
20260902153045 69 244 4.0 7.0 0.00 0.00 0.00 83 1012.0
20260902151601 69 323 4.0 5.0 0.00 0.00 0.00 79 1012.0
20260902150055 68 0 0.0 0.0 0.00 0.00 0.00 85 1012.1
20260902144552 68 0 0.0 0.0 0.00 0.00 0.00 85 1012.3
20260902143049 67 0 0.0 1.0 0.00 0.00 0.00 86 1012.5
20260902141554 67 262 1.0 2.0 0.00 0.00 0.00 87 1012.5
20260902140054 67 262 0.0 3.0 0.00 0.00 0.00 86 1012.5
20260902134556 68 333 2.0 3.0 0.00 0.00 0.00 84 1012.5
20260902133047 68 331 1.0 4.0 0.00 0.00 0.00 84 1012.7
20260902131602 67 44 2.0 5.0 0.00 0.00 0.00 85 1012.4
20260902130056 68 0 0.0 0.0 0.00 0.00 0.00 85 1012.2
20260902124550 69 0 0.0 0.0 0.00 0.00 0.00 88 1012.2
20260902123103 66 0 0.0 1.0 0.00 0.00 0.00 92 1012.1
20260902121555 65 46 0.0 3.0 0.00 0.00 0.00 91 1012.0
20260902120106 65 28 2.0 7.0 0.00 0.00 0.00 91 1011.9
20260902114549 65 15 1.0 3.0 0.00 0.00 0.00 90 1012.0
20260902113046 66 248 0.0 3.0 0.00 0.00 0.00 90 1011.9
20260902111603 66 248 1.0 3.0 0.00 0.00 0.00 91 1011.9
20260902110057 66 248 0.0 2.0 0.00 0.00 0.00 88 1011.9
20260902104549 66 248 2.0 5.0 0.00 0.00 0.00 87 1011.9
20260902103055 66 246 4.0 6.0 0.00 0.00 0.00 86 1012.1